{"data":{"norad_id":68635,"intl_designator":"2026-074J","name":"CANVAS","alt_names":[],"object_type":"PAYLOAD","status":"ACTIVE","operator":null,"country":"US","launch_date":"2026-04-07","launch_site_code":"AFWTR","launch_vehicle":null,"mission":null,"orbit_class":"UNKNOWN","rcs_meters":null,"size_class":null,"mass_kg":null,"dimensions":null,"purposes":[],"wikipedia_slug":null,"has_3d_model":false,"image_url":null,"decayed_at":null,"tle_current":{"epoch":"2026-09-20T00:21:00.707328Z","epoch_age_seconds":105187,"freshness":"FRESH","line1":"1 68635U 26074J   26263.01459152  .00010117  00000+0  38097-3 0  9992","line2":"2 68635  60.0226 173.2381 0037283  90.0969 270.4385 15.27067471 25261","mean_motion":15.27067471,"eccentricity":0.0037283,"inclination_deg":60.0226,"raan_deg":173.2381,"arg_perigee_deg":90.0969,"mean_anomaly_deg":270.4385,"bstar":0.00038097,"rev_number":2526,"period_min":94.298387422071,"perigee_km":458.99793794217,"apogee_km":510.1705050022,"semimajor_km":6862.7212214722,"source":"CELESTRAK","updated_at":"2026-09-20T09:00:24.366710Z"}}}